Flag for Germany Weather past 2 weeks in Rietberg, North Rhine-Westphalia, Germany

Now
54 °F

Scattered clouds.


Feels Like: 54 °F
Forecast: 47 / 57 °F
Wind: 2 mph from North

Location: Paderborn / Lippstadt

Current Time: May 24, 2015 at 10:19:05 AM

Latest Report: May 24, 2015 at 9:50 AM


Visibility: N/A

Pressure: 30.12 "Hg

Humidity: 63%

Dew point: 41 °F

Location of RietbergLocation

Historic Weather in Rietberg — Graph

°F

Rietberg temperature yesterday

Maximum temperature yesterday: 64 °F (at 1:20 PM)
Minimum temperature yesterday: 48 °F (at 2:50 AM)
Average temperature yesterday: 54 °F

Past Weeks' High & Low Weather Summary

 TemperatureHumidityPressure
High77 °F (May 12, 12:20 PM)100% (May 16, 7:20 PM)30.33 "Hg (May 16, 7:20 PM)
Low37 °F (May 15, 3:50 AM)31% (May 11, 4:20 PM)29.62 "Hg (May 18, 9:20 PM)
Average53 °F63%30.08 "Hg
* Reported May 9 9:20 AM — May 24 9:20 AM, Rietberg, Weather by CustomWeather, © 2015

Note: Actual official high and low records may vary slightly from our data, if they occured in-between our weather recording intervals... More about our weather records

Advertising

Rietberg weather history for previous 24 hours

 ConditionsComfort  
Time TempWeatherWind HumidityBarometerVisibility
9:20 AM
Sun, May 24
52 °FPartly sunny.3 mph72%30.12 "HgN/A
8:50 AM50 °FPartly sunny.2 mph71%30.15 "HgN/A
8:20 AM48 °FPartly sunny.5 mph76%30.15 "HgN/A
7:50 AM46 °FPartly sunny.5 mph82%30.12 "HgN/A
7:20 AM46 °FPartly sunny.5 mph82%30.12 "HgN/A
6:50 AM45 °FPartly sunny.2 mph93%30.15 "HgN/A
6:20 AM45 °FPassing clouds.2 mph87%30.15 "HgN/A
5:50 AM45 °FPassing clouds.1 mph87%30.12 "HgN/A
5:20 AM45 °FPassing clouds.3 mph87%30.15 "HgN/A
4:50 AM45 °FPassing clouds.3 mph87%30.15 "HgN/A
4:20 AM43 °FPassing clouds.2 mph93%30.15 "HgN/A
3:50 AM41 °FPassing clouds.1 mph93%30.15 "HgN/A
3:20 AM41 °FPassing clouds.2 mph93%30.15 "HgN/A
2:50 AM41 °FPassing clouds.2 mph93%30.15 "HgN/A
2:20 AM43 °FPassing clouds.1 mph87%30.15 "HgN/A
1:50 AM46 °FPassing clouds.2 mph82%30.15 "HgN/A
1:20 AM46 °FPassing clouds.2 mph82%30.15 "HgN/A
12:50 AM48 °FPassing clouds.5 mph76%30.15 "HgN/A
12:20 AM50 °FPassing clouds.5 mph82%30.15 "HgN/A
11:50 PM
Sat, May 23
50 °FPartly cloudy.3 mph88%30.15 "HgN/A
11:20 PM50 °FPartly cloudy.2 mph94%30.15 "HgN/A
10:50 PM50 °FPassing clouds.3 mph94%30.15 "HgN/A
10:20 PM50 °FPartly sunny.3 mph94%30.15 "HgN/A
9:50 PM50 °FPartly sunny.2 mph94%30.15 "HgN/A
9:20 PM52 °FPartly sunny.1 mph88%30.15 "HgN/A
8:50 PM52 °FBroken clouds.1 mph88%30.15 "Hg4 mi
8:20 PM52 °FPartly sunny.2 mph88%30.15 "Hg4 mi
7:50 PM52 °FDrizzle. Fog.3 mph88%30.15 "Hg3 mi
7:20 PM52 °FDrizzle. Fog.5 mph88%30.15 "Hg3 mi
6:50 PM52 °FDrizzle. Partly sunny.5 mph88%30.15 "Hg4 mi
6:20 PM54 °FPartly sunny.6 mph82%30.12 "Hg4 mi
5:50 PM55 °FPartly sunny.9 mph77%30.12 "Hg4 mi
5:20 PM57 °FLight rain. Broken clouds.8 mph72%30.12 "Hg6 mi
4:50 PM57 °FLight rain. Broken clouds.9 mph72%30.12 "Hg6 mi
4:20 PM61 °FLight rain. Broken clouds.8 mph59%30.12 "HgN/A
3:50 PM63 °FLight rain. Broken clouds.8 mph56%30.12 "HgN/A
3:20 PM63 °FPassing clouds.6 mph52%30.12 "HgN/A
2:50 PM63 °FPassing clouds.6 mph52%30.12 "HgN/A
2:20 PM63 °FPassing clouds.6 mph49%30.12 "HgN/A
1:50 PM64 °FPassing clouds.8 mph46%30.12 "HgN/A
1:20 PM64 °FPassing clouds.7 mph46%30.12 "HgN/A
12:50 PM63 °FSunny.6 mph45%30.15 "Hg10 mi
12:20 PM61 °FPassing clouds.7 mph55%30.15 "HgN/A
11:50 AM61 °FPassing clouds.8 mph55%30.15 "HgN/A
11:20 AM59 °FPassing clouds.7 mph59%30.15 "HgN/A
10:50 AM59 °FPassing clouds.6 mph59%30.15 "HgN/A
10:20 AM57 °FPassing clouds.5 mph67%30.15 "HgN/A
Weather by CustomWeather, © 2015

See weather overviewHow to use our weather pages